Location: Beuerbach
(48.1459°N, 10.9174°E)
Time: 00:56:02
(UTC+00:00)

Meteor 1-21 - Pass Details

Date: 14 August 2024
Orbit: 845 x 885 km, 81.2° (Epoch: 09 September)

Event Time Altitude Azimuth Distance (km) Brightness Sun altitude
Rises 01:43:27 0° 332° (NNW) 3,419 7.7 -20.0°
Reaches altitude 10° 01:47:04 10° 308° (NW) 2,481 6.6 -19.7°
Maximum altitude 01:49:48 14° 279° (W) 2,211 6.1 -19.4°
Enters shadow 01:50:04 14° 276° (W) 2,213 6.1 -19.4°
